CW7114 Weather Reports


time (UTC)temp
C
wind
direction
speed
KPH
gust
KPH
rain 1hr
cm
rain 24hr
cm
rain mn
cm
humidity
%
barometer
mb
20260509000314 19 200 0.0 0.0 0.00 0.00 0.00 50 1013.4
20260508234832 19 200 0.0 0.0 0.00 0.00 0.00 50 1013.4
20260508233334 20 201 0.0 0.0 0.00 0.00 0.00 47 1013.2
20260508231851 20 201 0.0 0.0 0.00 0.00 0.00 48 1013.3
20260508230331 20 200 0.0 0.0 0.00 0.00 0.00 49 1013.3
20260508224829 20 174 0.0 0.0 0.00 0.00 0.00 47 1013.4
20260508223346 20 174 0.0 0.0 0.00 0.00 0.00 45 1013.2
20260508221826 20 169 0.0 0.0 0.00 0.00 0.00 44 1013.6
20260508220343 21 151 0.0 0.0 0.00 0.00 0.00 41 1013.4
20260508214845 21 152 0.0 6.4 0.00 0.00 0.00 41 1013.3
20260508213320 21 137 1.6 4.8 0.00 0.00 0.00 41 1013.3
20260508211838 21 147 0.0 6.4 0.00 0.00 0.00 39 1013.2
20260508210318 21 116 0.0 1.6 0.00 0.00 0.00 38 1013.5
20260508204815 21 168 0.0 0.0 0.00 0.00 0.00 36 1013.5
20260508203336 21 166 4.8 9.7 0.00 0.00 0.00 38 1013.6
20260508201814 22 81 0.0 0.0 0.00 0.00 0.00 38 1013.5
20260508200315 21 68 0.0 8.0 0.00 0.00 0.00 37 1013.8
20260508194814 21 30 1.6 6.4 0.00 0.00 0.00 37 1013.8
20260508193314 22 220 0.0 9.7 0.00 0.00 0.00 36 1014.1
20260508191831 21 311 0.0 8.0 0.00 0.00 0.00 37 1014.4
20260508190328 21 147 3.2 6.4 0.00 0.00 0.00 39 1014.6
20260508184829 21 172 0.0 4.8 0.00 0.00 0.00 36 1014.8
20260508183325 21 236 0.0 8.0 0.00 0.00 0.00 37 1014.9
20260508181827 21 210 1.6 8.0 0.00 0.00 0.00 38 1015.2
20260508180323 21 171 1.6 8.0 0.00 0.00 0.00 40 1015.3
20260508174823 21 334 0.0 6.4 0.00 0.00 0.00 38 1015.2
20260508173320 21 53 1.6 8.0 0.00 0.00 0.00 39 1015.5
20260508171822 20 126 3.2 11.3 0.00 0.00 0.00 38 1015.8
20260508170317 20 5 0.0 8.0 0.00 0.00 0.00 40 1015.9
20260508164819 20 83 0.0 4.8 0.00 0.03 0.00 42 1016.3
20260508163317 19 79 0.0 8.0 0.00 0.03 0.00 45 1016.4
20260508161818 20 62 3.2 11.3 0.00 0.03 0.00 42 1016.6
20260508160315 19 45 6.4 9.7 0.00 0.03 0.00 43 1016.9
20260508154852 19 150 1.6 9.7 0.00 0.71 0.00 43 1017.1
20260508153313 19 43 4.8 11.3 0.00 0.71 0.00 44 1017.1
20260508151830 18 58 4.8 9.7 0.00 0.71 0.00 44 1016.9
20260508150313 18 45 4.8 14.5 0.00 0.71 0.00 46 1016.9
20260508144832 18 70 4.8 12.9 0.00 2.03 0.00 48 1017.0
20260508143313 18 10 9.7 16.1 0.00 2.03 0.00 51 1016.9
20260508141831 17 5 6.4 14.5 0.00 2.03 0.00 52 1017.0
20260508140331 18 348 9.7 16.1 0.00 2.03 0.00 51 1017.0
20260508134828 18 76 4.8 12.9 0.00 2.08 0.00 54 1017.0
20260508133325 17 27 6.4 12.9 0.00 2.08 0.00 55 1016.8
20260508131827 17 15 8.0 16.1 0.00 2.08 0.00 60 1016.6
20260508130345 16 22 6.4 12.9 0.00 2.08 0.00 64 1016.4
20260508124824 16 29 3.2 11.3 0.00 2.08 0.00 70 1016.4
20260508123320 15 5 4.8 12.9 0.00 2.08 0.00 73 1016.3
20260508121840 14 360 3.2 6.4 0.00 2.08 0.00 78 1016.3
20260508003318 22 266 0.0 3.2 0.00 3.61 2.72 69 1007.7
20260508001819 23 235 1.6 6.4 0.00 3.61 2.72 69 1007.5